| time (UTC) | temp F | wind direction | speed MPH | gust MPH | rain 1hr in | rain 24hr in | rain mn in | humidity % | barometer mb |
| 20260906045034 | 61 | 202 | 2.0 | 10.0 | 0.00 | 0.00 | 0.00 | 62 | 1019.5 |
| 20260906044540 | 61 | 292 | 0.0 | 9.0 | 0.00 | 0.00 | 0.00 | 62 | 1019.4 |
| 20260906044034 | 61 | 172 | 1.0 | 9.0 | 0.00 | 0.00 | 0.00 | 61 | 1019.4 |
| 20260906043534 | 61 | 192 | 1.0 | 10.0 | 0.00 | 0.00 | 0.00 | 60 | 1019.4 |
| 20260906043042 | 61 | 274 | 1.0 | 9.0 | 0.00 | 0.00 | 0.00 | 60 | 1019.4 |
| 20260906042534 | 61 | 188 | 1.0 | 5.0 | 0.00 | 0.00 | 0.00 | 60 | 1019.5 |
| 20260906042034 | 61 | 248 | 1.0 | 9.0 | 0.00 | 0.00 | 0.00 | 60 | 1019.5 |
| 20260906041034 | 62 | 186 | 0.0 | 7.0 | 0.00 | 0.00 | 0.00 | 59 | 1019.4 |
| 20260906040533 | 62 | 234 | 0.0 | 7.0 | 0.00 | 0.00 | 0.00 | 59 | 1019.4 |
| 20260906040034 | 62 | 184 | 2.0 | 12.0 | 0.00 | 0.00 | 0.00 | 57 | 1019.3 |
| 20260906035530 | 62 | 214 | 3.0 | 12.0 | 0.00 | 0.00 | 0.00 | 57 | 1019.3 |
| 20260906035029 | 63 | 190 | 3.0 | 10.0 | 0.00 | 0.00 | 0.00 | 56 | 1019.2 |
| 20260906034530 | 63 | 190 | 4.0 | 12.0 | 0.00 | 0.00 | 0.00 | 57 | 1019.1 |
| 20260906034028 | 63 | 181 | 3.0 | 11.0 | 0.00 | 0.00 | 0.00 | 57 | 1019.1 |
| 20260906033529 | 63 | 190 | 2.0 | 9.0 | 0.00 | 0.00 | 0.00 | 56 | 1019.0 |
| 20260906033031 | 63 | 199 | 4.0 | 9.0 | 0.00 | 0.00 | 0.00 | 56 | 1018.9 |
| 20260906032528 | 63 | 210 | 4.0 | 9.0 | 0.00 | 0.00 | 0.00 | 56 | 1018.9 |
| 20260906032028 | 64 | 176 | 3.0 | 12.0 | 0.00 | 0.00 | 0.00 | 56 | 1019.0 |
| 20260906031028 | 64 | 207 | 3.0 | 12.0 | 0.00 | 0.00 | 0.00 | 55 | 1018.9 |
| 20260906030529 | 64 | 191 | 5.0 | 11.0 | 0.00 | 0.00 | 0.00 | 55 | 1018.8 |
| 20260906030028 | 64 | 211 | 4.0 | 12.0 | 0.00 | 0.00 | 0.00 | 55 | 1018.7 |
| 20260906025532 | 65 | 165 | 4.0 | 12.0 | 0.00 | 0.00 | 0.00 | 54 | 1018.6 |
| 20260906025029 | 65 | 164 | 3.0 | 9.0 | 0.00 | 0.00 | 0.00 | 55 | 1018.6 |
| 20260906024528 | 65 | 203 | 3.0 | 9.0 | 0.00 | 0.00 | 0.00 | 54 | 1018.6 |
| 20260906024032 | 66 | 314 | 2.0 | 9.0 | 0.00 | 0.00 | 0.00 | 54 | 1018.6 |
| 20260906023528 | 66 | 272 | 0.0 | 7.0 | 0.00 | 0.00 | 0.00 | 55 | 1018.5 |
| 20260906023028 | 66 | 264 | 1.0 | 8.0 | 0.00 | 0.00 | 0.00 | 54 | 1018.5 |
| 20260906022527 | 67 | 162 | 0.0 | 8.0 | 0.00 | 0.00 | 0.00 | 54 | 1018.5 |
| 20260906022027 | 67 | 198 | 1.0 | 9.0 | 0.00 | 0.00 | 0.00 | 53 | 1018.4 |
| 20260906021027 | 68 | 321 | 3.0 | 12.0 | 0.00 | 0.00 | 0.00 | 52 | 1018.4 |
| 20260906020528 | 68 | 215 | 4.0 | 12.0 | 0.00 | 0.00 | 0.00 | 51 | 1018.4 |
| 20260906020032 | 68 | 211 | 3.0 | 12.0 | 0.00 | 0.00 | 0.00 | 49 | 1018.4 |
| 20260906015527 | 69 | 241 | 5.0 | 13.0 | 0.00 | 0.00 | 0.00 | 49 | 1018.4 |
| 20260906015027 | 69 | 194 | 3.0 | 13.0 | 0.00 | 0.00 | 0.00 | 47 | 1018.3 |
| 20260906014531 | 69 | 195 | 3.0 | 10.0 | 0.00 | 0.00 | 0.00 | 46 | 1018.3 |
| 20260906014029 | 69 | 186 | 4.0 | 13.0 | 0.00 | 0.00 | 0.00 | 46 | 1018.2 |
| 20260906013527 | 70 | 217 | 4.0 | 13.0 | 0.00 | 0.00 | 0.00 | 46 | 1018.2 |
| 20260906013027 | 70 | 184 | 2.0 | 11.0 | 0.00 | 0.00 | 0.00 | 45 | 1018.2 |
| 20260906012526 | 70 | 208 | 4.0 | 13.0 | 0.00 | 0.00 | 0.00 | 45 | 1018.2 |
| 20260906012027 | 70 | 195 | 1.0 | 13.0 | 0.00 | 0.00 | 0.00 | 46 | 1018.1 |
| 20260906011030 | 71 | 198 | 1.0 | 17.0 | 0.00 | 0.00 | 0.00 | 45 | 1018.1 |
| 20260906010526 | 71 | 190 | 6.0 | 15.0 | 0.00 | 0.00 | 0.00 | 44 | 1018.1 |
| 20260906010027 | 71 | 192 | 4.0 | 13.0 | 0.00 | 0.00 | 0.00 | 44 | 1018.1 |
| 20260906005526 | 72 | 209 | 1.0 | 12.0 | 0.00 | 0.00 | 0.00 | 44 | 1018.1 |
| 20260906005026 | 72 | 192 | 5.0 | 17.0 | 0.00 | 0.00 | 0.00 | 43 | 1018.1 |
| 20260906004525 | 73 | 183 | 9.0 | 17.0 | 0.00 | 0.00 | 0.00 | 41 | 1018.1 |
| 20260906004025 | 74 | 195 | 1.0 | 10.0 | 0.00 | 0.00 | 0.00 | 40 | 1018.1 |
| 20260906003525 | 75 | 176 | 3.0 | 10.0 | 0.00 | 0.00 | 0.00 | 39 | 1018.2 |
| 20260906003028 | 75 | 269 | 0.0 | 5.0 | 0.00 | 0.00 | 0.00 | 38 | 1018.2 |
| 20260906002527 | 75 | 274 | 0.0 | 3.0 | 0.00 | 0.00 | 0.00 | 38 | 1018.1 |
| 20260906002025 | 75 | 290 | 0.0 | 4.0 | 0.00 | 0.00 | 0.00 | 37 | 1018.2 |
| 20260906001025 | 74 | 298 | 0.0 | 5.0 | 0.00 | 0.00 | 0.00 | 38 | 1018.1 |
| 20260906000525 | 74 | 307 | 0.0 | 6.0 | 0.00 | 0.00 | 0.00 | 37 | 1018.1 |
| 20260906000025 | 74 | 342 | 1.0 | 6.0 | 0.00 | 0.00 | 0.00 | 37 | 1018.1 |
| 20260905235524 | 74 | 296 | 0.0 | 4.0 | 0.00 | 0.00 | 0.00 | 37 | 1018.1 |
| 20260905235028 | 74 | 308 | 0.0 | 4.0 | 0.00 | 0.00 | 0.00 | 38 | 1018.1 |
| 20260905234524 | 73 | 303 | 0.0 | 6.0 | 0.00 | 0.00 | 0.00 | 38 | 1018.1 |
| 20260905234031 | 73 | 311 | 2.0 | 6.0 | 0.00 | 0.00 | 0.00 | 39 | 1018.1 |
| 20260905233524 | 73 | 258 | 0.0 | 7.0 | 0.00 | 0.00 | 0.00 | 39 | 1018.1 |
| 20260905233030 | 73 | 280 | 1.0 | 7.0 | 0.00 | 0.00 | 0.00 | 38 | 1018.2 |
| 20260905232523 | 73 | 300 | 0.0 | 7.0 | 0.00 | 0.00 | 0.00 | 39 | 1018.2 |
| 20260905232028 | 73 | 286 | 0.0 | 5.0 | 0.00 | 0.00 | 0.00 | 40 | 1018.3 |
| 20260905231022 | 74 | 290 | 0.0 | 5.0 | 0.00 | 0.00 | 0.00 | 37 | 1018.3 |
| 20260905230526 | 75 | 307 | 0.0 | 4.0 | 0.00 | 0.00 | 0.00 | 37 | 1018.2 |
| 20260905230021 | 75 | 301 | 1.0 | 7.0 | 0.00 | 0.00 | 0.00 | 36 | 1018.3 |
| 20260905225520 | 76 | 326 | 1.0 | 7.0 | 0.00 | 0.00 | 0.00 | 35 | 1018.3 |
| 20260905225021 | 76 | 337 | 0.0 | 6.0 | 0.00 | 0.00 | 0.00 | 36 | 1018.4 |
| 20260905224521 | 77 | 290 | 1.0 | 6.0 | 0.00 | 0.00 | 0.00 | 35 | 1018.5 |
| 20260905224018 | 77 | 305 | 0.0 | 2.0 | 0.00 | 0.00 | 0.00 | 36 | 1018.6 |
| 20260905223518 | 76 | 309 | 0.0 | 0.0 | 0.00 | 0.00 | 0.00 | 36 | 1018.6 |
| 20260905223031 | 75 | 309 | 0.0 | 8.0 | 0.00 | 0.00 | 0.00 | 35 | 1018.7 |
| 20260905222518 | 76 | 303 | 1.0 | 8.0 | 0.00 | 0.00 | 0.00 | 35 | 1018.8 |
| 20260905222022 | 77 | 288 | 0.0 | 6.0 | 0.00 | 0.00 | 0.00 | 36 | 1018.8 |
| 20260905221026 | 76 | 296 | 1.0 | 5.0 | 0.00 | 0.00 | 0.00 | 36 | 1018.8 |
| 20260905220525 | 76 | 287 | 0.0 | 2.0 | 0.00 | 0.00 | 0.00 | 36 | 1018.8 |
| 20260905220028 | 76 | 257 | 0.0 | 6.0 | 0.00 | 0.00 | 0.00 | 36 | 1018.9 |
| 20260905215525 | 76 | 283 | 0.0 | 6.0 | 0.00 | 0.00 | 0.00 | 35 | 1018.9 |
| 20260905215025 | 76 | 290 | 0.0 | 7.0 | 0.00 | 0.00 | 0.00 | 35 | 1018.9 |
| 20260905214524 | 76 | 303 | 0.0 | 7.0 | 0.00 | 0.00 | 0.00 | 35 | 1019.0 |
| 20260905214023 | 76 | 272 | 0.0 | 4.0 | 0.00 | 0.00 | 0.00 | 36 | 1019.1 |
| 20260905213525 | 75 | 273 | 0.0 | 5.0 | 0.00 | 0.00 | 0.00 | 35 | 1019.0 |
| 20260905213023 | 75 | 281 | 1.0 | 5.0 | 0.00 | 0.00 | 0.00 | 36 | 1019.0 |
| 20260905212523 | 74 | 353 | 0.0 | 5.0 | 0.00 | 0.00 | 0.00 | 35 | 1019.0 |
| 20260905212026 | 75 | 336 | 0.0 | 6.0 | 0.00 | 0.00 | 0.00 | 35 | 1019.1 |
| 20260905211013 | 76 | 18 | 0.0 | 3.0 | 0.00 | 0.00 | 0.00 | 33 | 1019.1 |
| 20260905210513 | 76 | 286 | 0.0 | 2.0 | 0.00 | 0.00 | 0.00 | 33 | 1019.2 |
| 20260905210010 | 75 | 283 | 0.0 | 2.0 | 0.00 | 0.00 | 0.00 | 34 | 1019.2 |
| 20260905205510 | 75 | 305 | 0.0 | 5.0 | 0.00 | 0.00 | 0.00 | 36 | 1019.3 |
| 20260905205010 | 75 | 320 | 0.0 | 5.0 | 0.00 | 0.00 | 0.00 | 34 | 1019.3 |
| 20260905204511 | 75 | 282 | 0.0 | 0.0 | 0.00 | 0.00 | 0.00 | 37 | 1019.4 |
| 20260905204008 | 74 | 286 | 0.0 | 2.0 | 0.00 | 0.00 | 0.00 | 38 | 1019.4 |
| 20260905203511 | 73 | 286 | 0.0 | 5.0 | 0.00 | 0.00 | 0.00 | 39 | 1019.4 |
| 20260905203008 | 73 | 291 | 0.0 | 6.0 | 0.00 | 0.00 | 0.00 | 39 | 1019.4 |
| 20260905202507 | 73 | 305 | 0.0 | 6.0 | 0.00 | 0.00 | 0.00 | 38 | 1019.4 |
| 20260905202007 | 74 | 26 | 0.0 | 3.0 | 0.00 | 0.00 | 0.00 | 39 | 1019.4 |
| 20260905201007 | 74 | 38 | 0.0 | 2.0 | 0.00 | 0.00 | 0.00 | 35 | 1019.5 |
| 20260905200509 | 73 | 43 | 0.0 | 1.0 | 0.00 | 0.00 | 0.00 | 37 | 1019.5 |
| 20260905200008 | 73 | 43 | 0.0 | 1.0 | 0.00 | 0.00 | 0.00 | 42 | 1019.5 |
| 20260905195512 | 73 | 43 | 0.0 | 1.0 | 0.00 | 0.00 | 0.00 | 41 | 1019.5 |
| 20260905195006 | 73 | 59 | 0.0 | 0.0 | 0.00 | 0.00 | 0.00 | 29 | 1019.5 |
| 20260905194506 | 72 | 59 | 0.0 | 1.0 | 0.00 | 0.00 | 0.00 | 31 | 1019.5 |
| 20260905194140 | 72 | 59 | 0.0 | 3.0 | 0.00 | 0.00 | 0.00 | 29 | 1019.5 |
| 20260905193505 | 73 | 60 | 0.0 | 4.0 | 0.00 | 0.00 | 0.00 | 30 | 1019.5 |
| 20260905193005 | 74 | 88 | 0.0 | 4.0 | 0.00 | 0.00 | 0.00 | 35 | 1019.6 |
| 20260905192502 | 73 | 83 | 0.0 | 4.0 | 0.00 | 0.00 | 0.00 | 33 | 1019.7 |
| 20260905192002 | 72 | 78 | 0.0 | 4.0 | 0.00 | 0.00 | 0.00 | 38 | 1019.8 |
| 20260905191104 | 72 | 75 | 0.0 | 5.0 | 0.00 | 0.00 | 0.00 | 46 | 1020.0 |
| 20260905191002 | 72 | 74 | 0.0 | 5.0 | 0.00 | 0.00 | 0.00 | 46 | 1020.0 |
| 20260905190600 | 72 | 86 | 0.0 | 3.0 | 0.00 | 0.00 | 0.00 | 43 | 1020.0 |
| 20260905190058 | 71 | 66 | 0.0 | 5.0 | 0.00 | 0.00 | 0.00 | 45 | 1020.0 |
| 20260905185556 | 71 | 92 | 1.0 | 5.0 | 0.00 | 0.00 | 0.00 | 46 | 1020.1 |
| 20260905185059 | 70 | 105 | 0.0 | 4.0 | 0.00 | 0.00 | 0.00 | 58 | 1020.1 |
| 20260905184603 | 70 | 251 | 0.0 | 0.0 | 0.00 | 0.00 | 0.00 | 58 | 1020.1 |
| 20260905184053 | 69 | 251 | 0.0 | 0.0 | 0.00 | 0.00 | 0.00 | 60 | 1020.1 |
| 20260905183554 | 68 | 251 | 0.0 | 0.0 | 0.00 | 0.00 | 0.00 | 61 | 1020.1 |
| 20260905183050 | 67 | 251 | 0.0 | 0.0 | 0.00 | 0.00 | 0.00 | 65 | 1020.1 |
| 20260905182549 | 67 | 251 | 0.0 | 0.0 | 0.00 | 0.00 | 0.00 | 65 | 1020.1 |
| 20260905182048 | 67 | 251 | 0.0 | 0.0 | 0.00 | 0.00 | 0.00 | 65 | 1020.1 |
| 20260905181051 | 66 | 251 | 0.0 | 0.0 | 0.00 | 0.00 | 0.00 | 65 | 1020.1 |
| 20260905180550 | 65 | 251 | 0.0 | 0.0 | 0.00 | 0.00 | 0.00 | 68 | 1020.2 |
| 20260905180053 | 65 | 267 | 0.0 | 0.0 | 0.00 | 0.00 | 0.00 | 68 | 1020.2 |
| 20260905175549 | 65 | 267 | 0.0 | 0.0 | 0.00 | 0.00 | 0.00 | 68 | 1020.2 |
| 20260905175048 | 64 | 267 | 0.0 | 0.0 | 0.00 | 0.00 | 0.00 | 69 | 1020.2 |
| 20260905174547 | 64 | 267 | 0.0 | 0.0 | 0.00 | 0.00 | 0.00 | 70 | 1020.3 |
| 20260905174047 | 64 | 267 | 0.0 | 3.0 | 0.00 | 0.00 | 0.00 | 71 | 1020.2 |
| 20260905173544 | 63 | 271 | 0.0 | 3.0 | 0.00 | 0.00 | 0.00 | 72 | 1020.3 |
| 20260905173044 | 63 | 259 | 0.0 | 0.0 | 0.00 | 0.00 | 0.00 | 72 | 1020.3 |
| 20260905172543 | 63 | 258 | 0.0 | 0.0 | 0.00 | 0.00 | 0.00 | 74 | 1020.3 |
| 20260905172043 | 62 | 280 | 0.0 | 1.0 | 0.00 | 0.00 | 0.00 | 74 | 1020.3 |
| 20260905171039 | 63 | 272 | 0.0 | 0.0 | 0.00 | 0.00 | 0.00 | 72 | 1020.2 |
| 20260905170537 | 62 | 272 | 0.0 | 0.0 | 0.00 | 0.00 | 0.00 | 73 | 1020.1 |
| 20260905170037 | 62 | 272 | 0.0 | 0.0 | 0.00 | 0.00 | 0.00 | 73 | 1020.1 |
| 20260905165535 | 62 | 272 | 0.0 | 0.0 | 0.00 | 0.00 | 0.00 | 75 | 1020.1 |
| 20260905165038 | 61 | 286 | 0.0 | 0.0 | 0.00 | 0.00 | 0.00 | 76 | 1020.1 |
| 20260905164533 | 60 | 293 | 0.0 | 0.0 | 0.00 | 0.00 | 0.00 | 77 | 1020.0 |
| 20260905164031 | 60 | 293 | 0.0 | 0.0 | 0.00 | 0.00 | 0.00 | 78 | 1020.1 |
| 20260905163532 | 59 | 293 | 0.0 | 0.0 | 0.00 | 0.00 | 0.00 | 79 | 1020.1 |
| 20260905163031 | 59 | 293 | 0.0 | 0.0 | 0.00 | 0.00 | 0.00 | 78 | 1020.1 |
| 20260905162530 | 59 | 270 | 0.0 | 0.0 | 0.00 | 0.00 | 0.00 | 79 | 1020.1 |
| 20260905162028 | 59 | 270 | 0.0 | 0.0 | 0.00 | 0.00 | 0.00 | 80 | 1020.1 |
| 20260905161030 | 58 | 273 | 0.0 | 4.0 | 0.00 | 0.00 | 0.00 | 81 | 1020.3 |
| 20260905160531 | 58 | 247 | 0.0 | 0.0 | 0.00 | 0.00 | 0.00 | 81 | 1020.3 |
| 20260905160037 | 58 | 217 | 0.0 | 0.0 | 0.00 | 0.00 | 0.00 | 81 | 1020.3 |
| 20260905155526 | 57 | 309 | 0.0 | 0.0 | 0.00 | 0.00 | 0.00 | 83 | 1020.2 |
| 20260905155023 | 56 | 321 | 0.0 | 0.0 | 0.00 | 0.00 | 0.00 | 84 | 1020.3 |
| 20260905154544 | 56 | 299 | 0.0 | 5.0 | 0.00 | 0.00 | 0.00 | 84 | 1020.3 |
| 20260905154142 | 56 | 269 | 0.0 | 5.0 | 0.00 | 0.00 | 0.00 | 84 | 1020.3 |
| 20260905153522 | 56 | 294 | 0.0 | 2.0 | 0.00 | 0.00 | 0.00 | 84 | 1020.2 |
| 20260905153026 | 56 | 294 | 0.0 | 0.0 | 0.00 | 0.00 | 0.00 | 84 | 1020.2 |
| 20260905152520 | 56 | 291 | 0.0 | 3.0 | 0.00 | 0.00 | 0.00 | 86 | 1020.2 |
| 20260905152020 | 55 | 294 | 0.0 | 3.0 | 0.00 | 0.00 | 0.00 | 86 | 1020.1 |
| 20260905151024 | 55 | 286 | 0.0 | 2.0 | 0.00 | 0.00 | 0.00 | 86 | 1020.2 |
| 20260905150520 | 55 | 255 | 0.0 | 0.0 | 0.00 | 0.00 | 0.00 | 87 | 1020.1 |
| 20260905150024 | 55 | 351 | 0.0 | 0.0 | 0.00 | 0.00 | 0.00 | 87 | 1020.0 |
| 20260905145520 | 55 | 317 | 0.0 | 0.0 | 0.00 | 0.00 | 0.00 | 87 | 1020.0 |
| 20260905145023 | 54 | 294 | 0.0 | 0.0 | 0.00 | 0.00 | 0.00 | 87 | 1020.0 |
| 20260905144534 | 54 | 294 | 0.0 | 0.0 | 0.00 | 0.00 | 0.00 | 88 | 1020.0 |
| 20260905144020 | 54 | 294 | 0.0 | 0.0 | 0.00 | 0.00 | 0.00 | 88 | 1020.0 |
| 20260905143520 | 54 | 294 | 0.0 | 0.0 | 0.00 | 0.00 | 0.00 | 89 | 1020.0 |
| 20260905143020 | 53 | 294 | 0.0 | 0.0 | 0.00 | 0.00 | 0.00 | 90 | 1019.9 |
| 20260905142519 | 53 | 294 | 0.0 | 0.0 | 0.00 | 0.00 | 0.00 | 90 | 1019.9 |
| 20260905142026 | 53 | 294 | 0.0 | 0.0 | 0.00 | 0.00 | 0.00 | 90 | 1019.9 |
| 20260905141022 | 52 | 294 | 0.0 | 0.0 | 0.00 | 0.00 | 0.00 | 90 | 1019.8 |
| 20260905140522 | 52 | 294 | 0.0 | 0.0 | 0.00 | 0.00 | 0.00 | 90 | 1019.8 |
| 20260905140027 | 52 | 294 | 0.0 | 0.0 | 0.00 | 0.00 | 0.00 | 90 | 1019.8 |
| 20260905135522 | 52 | 294 | 0.0 | 0.0 | 0.00 | 0.00 | 0.00 | 90 | 1019.8 |
| 20260905135022 | 52 | 294 | 0.0 | 0.0 | 0.00 | 0.00 | 0.00 | 90 | 1019.9 |
| 20260905134521 | 52 | 294 | 0.0 | 0.0 | 0.00 | 0.00 | 0.00 | 89 | 1019.9 |
| 20260905134021 | 52 | 294 | 0.0 | 0.0 | 0.00 | 0.00 | 0.00 | 89 | 1019.8 |
| 20260905133524 | 52 | 294 | 0.0 | 0.0 | 0.00 | 0.00 | 0.00 | 89 | 1019.8 |
| 20260905133020 | 52 | 294 | 0.0 | 0.0 | 0.00 | 0.00 | 0.00 | 89 | 1019.8 |
| 20260905132520 | 53 | 294 | 0.0 | 0.0 | 0.00 | 0.00 | 0.00 | 88 | 1019.7 |
| 20260905132020 | 53 | 294 | 0.0 | 0.0 | 0.00 | 0.00 | 0.00 | 88 | 1019.7 |
| 20260905131013 | 53 | 294 | 0.0 | 5.0 | 0.00 | 0.00 | 0.00 | 87 | 1019.7 |
| 20260905130515 | 53 | 294 | 0.0 | 5.0 | 0.00 | 0.00 | 0.00 | 87 | 1019.7 |
| 20260905130016 | 53 | 303 | 0.0 | 5.0 | 0.00 | 0.00 | 0.00 | 87 | 1019.7 |
| 20260905125513 | 53 | 303 | 0.0 | 5.0 | 0.00 | 0.00 | 0.00 | 87 | 1019.8 |
| 20260905125012 | 53 | 316 | 0.0 | 5.0 | 0.00 | 0.00 | 0.00 | 87 | 1019.7 |
| 20260905124515 | 53 | 283 | 0.0 | 4.0 | 0.00 | 0.00 | 0.00 | 87 | 1019.6 |
| 20260905124011 | 53 | 283 | 0.0 | 4.0 | 0.00 | 0.00 | 0.00 | 87 | 1019.6 |
| 20260905123512 | 53 | 295 | 0.0 | 0.0 | 0.00 | 0.00 | 0.00 | 87 | 1019.6 |
| 20260905123011 | 53 | 295 | 0.0 | 6.0 | 0.00 | 0.00 | 0.00 | 87 | 1019.6 |
| 20260905122516 | 53 | 294 | 0.0 | 6.0 | 0.00 | 0.00 | 0.00 | 87 | 1019.7 |
| 20260905122011 | 53 | 302 | 0.0 | 4.0 | 0.00 | 0.00 | 0.00 | 87 | 1019.6 |
| 20260905121012 | 53 | 312 | 0.0 | 5.0 | 0.00 | 0.00 | 0.00 | 87 | 1019.6 |
| 20260905120512 | 53 | 284 | 0.0 | 4.0 | 0.00 | 0.00 | 0.00 | 87 | 1019.6 |
| 20260905120011 | 53 | 244 | 0.0 | 1.0 | 0.00 | 0.00 | 0.00 | 87 | 1019.6 |
| 20260905115513 | 53 | 294 | 0.0 | 3.0 | 0.00 | 0.00 | 0.00 | 87 | 1019.6 |
| 20260905115011 | 53 | 294 | 0.0 | 4.0 | 0.00 | 0.00 | 0.00 | 87 | 1019.5 |
| 20260905114511 | 53 | 294 | 0.0 | 5.0 | 0.00 | 0.00 | 0.00 | 86 | 1019.6 |
| 20260905114010 | 53 | 295 | 0.0 | 5.0 | 0.00 | 0.00 | 0.00 | 86 | 1019.6 |
| 20260905113513 | 53 | 279 | 0.0 | 6.0 | 0.00 | 0.00 | 0.00 | 86 | 1019.6 |
| 20260905113011 | 54 | 245 | 0.0 | 6.0 | 0.00 | 0.00 | 0.00 | 85 | 1019.6 |
| 20260905112511 | 54 | 279 | 0.0 | 6.0 | 0.00 | 0.00 | 0.00 | 85 | 1019.6 |
| 20260905112008 | 54 | 288 | 0.0 | 6.0 | 0.00 | 0.00 | 0.00 | 85 | 1019.7 |
| 20260905111016 | 54 | 288 | 0.0 | 5.0 | 0.00 | 0.00 | 0.00 | 85 | 1019.7 |
| 20260905110517 | 54 | 242 | 0.0 | 5.0 | 0.00 | 0.00 | 0.00 | 85 | 1019.8 |
| 20260905110015 | 54 | 239 | 0.0 | 5.0 | 0.00 | 0.00 | 0.00 | 85 | 1019.7 |
| 20260905105515 | 54 | 265 | 0.0 | 5.0 | 0.00 | 0.00 | 0.00 | 85 | 1019.7 |
| 20260905105017 | 54 | 288 | 0.0 | 5.0 | 0.00 | 0.00 | 0.00 | 85 | 1019.7 |
| 20260905104523 | 54 | 305 | 0.0 | 5.0 | 0.00 | 0.00 | 0.00 | 86 | 1019.8 |
| 20260905104025 | 54 | 304 | 0.0 | 4.0 | 0.00 | 0.00 | 0.00 | 86 | 1019.7 |
| 20260905103513 | 54 | 305 | 0.0 | 3.0 | 0.00 | 0.00 | 0.00 | 86 | 1019.8 |
| 20260905103012 | 55 | 294 | 0.0 | 5.0 | 0.00 | 0.00 | 0.00 | 85 | 1019.8 |
| 20260905102511 | 54 | 299 | 0.0 | 5.0 | 0.00 | 0.00 | 0.00 | 85 | 1019.9 |
| 20260905102012 | 54 | 284 | 0.0 | 2.0 | 0.00 | 0.00 | 0.00 | 85 | 1020.0 |
| 20260905101010 | 54 | 290 | 0.0 | 4.0 | 0.00 | 0.00 | 0.00 | 85 | 1020.0 |
| 20260905100516 | 55 | 269 | 0.0 | 4.0 | 0.00 | 0.00 | 0.00 | 85 | 1019.9 |
| 20260905100009 | 55 | 266 | 0.0 | 0.0 | 0.00 | 0.00 | 0.00 | 84 | 1019.9 |
| 20260905095508 | 55 | 271 | 0.0 | 0.0 | 0.00 | 0.00 | 0.00 | 84 | 1020.0 |
| 20260905095007 | 55 | 263 | 0.0 | 0.0 | 0.00 | 0.00 | 0.00 | 84 | 1020.0 |
| 20260905094508 | 55 | 265 | 0.0 | 4.0 | 0.00 | 0.00 | 0.00 | 84 | 1020.0 |
| 20260905094007 | 55 | 259 | 0.0 | 4.0 | 0.00 | 0.00 | 0.00 | 83 | 1020.0 |
| 20260905093507 | 55 | 200 | 0.0 | 3.0 | 0.00 | 0.00 | 0.00 | 83 | 1020.0 |
| 20260905093007 | 55 | 288 | 0.0 | 3.0 | 0.00 | 0.00 | 0.00 | 83 | 1020.0 |
| 20260905092507 | 55 | 290 | 0.0 | 4.0 | 0.00 | 0.00 | 0.00 | 83 | 1020.0 |
| 20260905092008 | 55 | 294 | 0.0 | 7.0 | 0.00 | 0.00 | 0.00 | 82 | 1020.0 |
| 20260905091100 | 55 | 236 | 0.0 | 6.0 | 0.00 | 0.00 | 0.00 | 81 | 1020.0 |
| 20260905090559 | 55 | 235 | 0.0 | 6.0 | 0.00 | 0.00 | 0.00 | 81 | 1020.0 |
| 20260905085600 | 56 | 287 | 1.0 | 8.0 | 0.00 | 0.00 | 0.00 | 81 | 1020.2 |
| 20260905085501 | 56 | 259 | 0.0 | 7.0 | 0.00 | 0.00 | 0.00 | 81 | 1020.2 |
| 20260905085102 | 56 | 288 | 1.0 | 7.0 | 0.00 | 0.00 | 0.00 | 81 | 1020.2 |
| 20260905084559 | 56 | 275 | 1.0 | 8.0 | 0.00 | 0.00 | 0.00 | 81 | 1020.1 |
| 20260905084058 | 56 | 213 | 1.0 | 8.0 | 0.00 | 0.00 | 0.00 | 80 | 1020.1 |
| 20260905083558 | 56 | 265 | 0.0 | 7.0 | 0.00 | 0.00 | 0.00 | 80 | 1020.1 |
| 20260905083058 | 56 | 311 | 1.0 | 7.0 | 0.00 | 0.00 | 0.00 | 80 | 1020.1 |
| 20260905082557 | 56 | 204 | 1.0 | 7.0 | 0.00 | 0.00 | 0.00 | 79 | 1020.1 |
| 20260905082058 | 56 | 288 | 1.0 | 7.0 | 0.00 | 0.00 | 0.00 | 79 | 1020.0 |
| 20260905081658 | 56 | 203 | 1.0 | 9.0 | 0.00 | 0.00 | 0.00 | 79 | 1020.0 |
| 20260905081055 | 56 | 190 | 1.0 | 9.0 | 0.00 | 0.00 | 0.00 | 78 | 1020.1 |
| 20260905080554 | 56 | 277 | 1.0 | 8.0 | 0.00 | 0.00 | 0.00 | 78 | 1020.0 |
| 20260905080059 | 56 | 250 | 0.0 | 8.0 | 0.00 | 0.00 | 0.00 | 78 | 1020.1 |
| 20260905075557 | 56 | 284 | 1.0 | 5.0 | 0.00 | 0.00 | 0.00 | 78 | 1020.1 |
| 20260905075054 | 56 | 233 | 0.0 | 7.0 | 0.00 | 0.00 | 0.00 | 77 | 1020.1 |
| 20260905074556 | 56 | 199 | 1.0 | 7.0 | 0.00 | 0.00 | 0.00 | 77 | 1020.0 |
| 20260905074054 | 56 | 253 | 1.0 | 6.0 | 0.00 | 0.00 | 0.00 | 76 | 1020.0 |
| 20260905073554 | 57 | 257 | 0.0 | 9.0 | 0.00 | 0.00 | 0.00 | 76 | 1020.0 |
| 20260905073059 | 57 | 272 | 0.0 | 9.0 | 0.00 | 0.00 | 0.00 | 76 | 1019.9 |
| 20260905072554 | 57 | 207 | 0.0 | 5.0 | 0.00 | 0.00 | 0.00 | 76 | 1019.9 |
| 20260905072053 | 57 | 280 | 0.0 | 6.0 | 0.00 | 0.00 | 0.00 | 76 | 1019.9 |
| 20260905071655 | 57 | 287 | 2.0 | 14.0 | 0.00 | 0.00 | 0.00 | 76 | 1019.9 |
| 20260905071059 | 57 | 241 | 0.0 | 14.0 | 0.00 | 0.00 | 0.00 | 76 | 1019.7 |
| 20260905070556 | 57 | 235 | 3.0 | 8.0 | 0.00 | 0.00 | 0.00 | 75 | 1019.7 |
| 20260905070056 | 57 | 211 | 2.0 | 8.0 | 0.00 | 0.00 | 0.00 | 75 | 1019.8 |
| 20260905065600 | 57 | 242 | 1.0 | 7.0 | 0.00 | 0.00 | 0.00 | 74 | 1019.9 |
| 20260905065056 | 57 | 257 | 0.0 | 7.0 | 0.00 | 0.00 | 0.00 | 75 | 1019.9 |
| 20260905064559 | 57 | 283 | 1.0 | 7.0 | 0.00 | 0.00 | 0.00 | 74 | 1019.9 |
| 20260905064056 | 57 | 231 | 1.0 | 7.0 | 0.00 | 0.00 | 0.00 | 74 | 1019.9 |
| 20260905063556 | 57 | 247 | 1.0 | 8.0 | 0.00 | 0.00 | 0.00 | 74 | 1019.9 |
| 20260905063107 | 57 | 236 | 2.0 | 8.0 | 0.00 | 0.00 | 0.00 | 74 | 1019.8 |
| 20260905062555 | 57 | 213 | 1.0 | 8.0 | 0.00 | 0.00 | 0.00 | 74 | 1019.9 |
| 20260905062055 | 57 | 226 | 1.0 | 8.0 | 0.00 | 0.00 | 0.00 | 74 | 1019.8 |
| 20260905061657 | 57 | 253 | 0.0 | 4.0 | 0.00 | 0.00 | 0.00 | 74 | 1019.8 |
| 20260905061055 | 57 | 244 | 0.0 | 5.0 | 0.00 | 0.00 | 0.00 | 73 | 1019.8 |
| 20260905060553 | 57 | 251 | 0.0 | 6.0 | 0.00 | 0.00 | 0.00 | 74 | 1019.8 |
| 20260905060054 | 57 | 254 | 1.0 | 7.0 | 0.00 | 0.00 | 0.00 | 73 | 1019.8 |
| 20260905055553 | 58 | 258 | 0.0 | 7.0 | 0.00 | 0.00 | 0.00 | 74 | 1019.8 |
| 20260905055053 | 58 | 282 | 0.0 | 7.0 | 0.00 | 0.00 | 0.00 | 74 | 1019.9 |
| 20260905054554 | 58 | 274 | 1.0 | 7.0 | 0.00 | 0.00 | 0.00 | 74 | 1019.8 |
| 20260905054053 | 58 | 189 | 1.0 | 6.0 | 0.00 | 0.00 | 0.00 | 73 | 1019.9 |
| 20260905053553 | 58 | 236 | 2.0 | 7.0 | 0.00 | 0.00 | 0.00 | 73 | 1019.8 |
| 20260905053056 | 58 | 205 | 0.0 | 6.0 | 0.00 | 0.00 | 0.00 | 73 | 1019.8 |
| 20260905052553 | 58 | 195 | 1.0 | 7.0 | 0.00 | 0.00 | 0.00 | 73 | 1019.9 |
| 20260905052053 | 58 | 224 | 1.0 | 7.0 | 0.00 | 0.00 | 0.00 | 72 | 1019.9 |
| 20260905051655 | 58 | 209 | 1.0 | 6.0 | 0.00 | 0.00 | 0.00 | 72 | 1019.9 |
| 20260905051053 | 58 | 200 | 2.0 | 6.0 | 0.00 | 0.00 | 0.00 | 72 | 1019.9 |
| 20260905050553 | 58 | 186 | 2.0 | 6.0 | 0.00 | 0.00 | 0.00 | 72 | 1020.0 |
| 20260905050053 | 58 | 184 | 1.0 | 8.0 | 0.00 | 0.00 | 0.00 | 72 | 1020.0 |
| 20260905045555 | 58 | 203 | 3.0 | 9.0 | 0.00 | 0.00 | 0.00 | 72 | 1019.9 |